Location: Balel
(15.2682°N, 12.9030°W)
Time: 22:01:05
(UTC+00:00)

Daily predictions for brighter satellites

Satellite Brightness Start Highest point End
(mag) Time Altitude Azimuth Time Altitude Azimuth Time Altitude Azimuth
Molniya-1 3.4 19:22:41 10° SSW 19:25:50 64° ESE 19:30:53 10° NNE
CZ-4 R/B 4.4 19:23:06 10° SSE 19:27:09 63° ENE 19:31:12 10° N
Okean O Rocket 2.9 19:23:19 10° S 19:27:31 45° W 19:31:45 10° NNW
CZ-2C R/B 3.5 19:24:28 10° S 19:29:14 62° WSW 19:33:55 10° NNW
GPS 2-15 Rocket1 3.2 19:24:43 10° W 19:29:27 72° SSW 19:34:08 10° ESE
SL-19 R/B 4.5 19:26:03 10° SSE 19:29:41 56° ENE 19:33:52 10° N
IRS-1C Rocket 4.4 19:27:11 10° SSE 19:32:10 45° ENE 19:37:09 10° N
Atlas Centaur 2 3.8 19:26:07 10° NW 19:33:27 41° NNE 19:41:22 10° E
GPS 2-12 Rocket1 3.1 19:31:15 10° W 19:35:49 80° NNW 19:40:18 10° ENE
Cosmos 1689 Rocket 1.8 19:34:32 10° NNE 19:37:18 69° E 19:40:04 10° S
ARIANE 5 R/B 4.3 19:25:51 10° WSW 19:40:52 27° SSW 19:44:50 10° SE
OAO 2 Rocket 3.3 19:36:25 10° NW 19:41:23 80° NNE 19:46:07 12° ESE
Cosmos 44 3.3 19:38:02 10° SSW 19:42:45 88° WNW 19:47:49 10° NNE
Lacrosse 4 Rocket 2.7 19:41:06 10° NW 19:45:02 42° WSW 19:48:52 10° S
CZ-4 R/B 1.4 19:41:13 10° SSE 19:45:22 65° ENE 19:49:32 10° N
YAOGAN 1 2.7 19:41:54 10° SSE 19:46:06 53° ENE 19:50:17 10° N
COSMOS 2487 2.5 19:43:01 10° SSW 19:46:24 78° WNW 19:49:46 10° N
GPS 2-14 Rocket1 3.4 19:42:42 10° WNW 19:46:26 43° N 19:49:48 13° ENE
HJ-1C 4.1 19:44:47 10° SE 19:47:43 31° ENE 19:50:38 10° NNE
Cosmos 2034 Rocket 3.9 19:41:52 10° S 19:47:57 67° E 19:54:06 10° N
Cosmos 2322 Rocket 2.6 19:47:43 10° N 19:53:08 44° ENE 19:58:31 10° SE
Cosmos 1758 Rocket 4.1 19:49:31 10° NNE 19:53:40 37° E 19:57:48 10° SSE
Cosmos 1464 Rocket 4.5 19:48:41 10° SSW 19:54:59 67° W 20:01:14 10° N
ARGOS 3.2 19:50:49 10° SSE 19:56:07 61° ENE 20:01:24 10° N
Cosmos 1602 Rocket 3.5 19:52:07 10° N 19:56:29 85° E 20:00:55 10° S
Cosmos 292 Rocket 4.5 19:51:46 10° NNW 19:56:30 56° WSW 20:01:12 10° S
Cosmos 1441 Rocket 3.5 19:52:49 10° N 19:56:39 48° E 20:00:28 10° SSE
USA 238 DEB 4.2 19:52:25 10° N 19:59:41 51° ENE 20:06:05 14° SE
USA 238 4.2 19:52:30 10° N 19:59:46 51° ENE 20:06:08 14° SE
CENTAUR R/B 3.6 19:52:14 10° N 20:00:40 49° ENE 20:07:47 15° SE
NOSS 3-2 (A) 4.2 19:53:36 10° NNW 20:01:59 74° ENE 20:10:47 10° SSE
SL-4 R/B 1.9 19:58:24 10° SSW 20:02:19 74° SE 20:06:36 10° NE
Helios 1A Rocket 3.8 20:03:05 23° ESE 20:04:32 29° ENE 20:08:03 10° NNE
SWIFT 3.3 20:01:00 10° WNW 20:04:59 40° N 20:07:43 18° ENE
Nadezhda 4 Rocket 4.4 19:59:52 10° NNE 20:05:41 40° E 20:11:11 11° SSE
Cosmos 1606 Rocket 4.0 20:02:33 10° SSW 20:06:55 65° W 20:11:15 10° N
CSL-04 Rocket 3.9 20:03:26 12° SE 20:08:11 45° ENE 20:13:11 10° N
RESURS DK-1 3.3 20:06:17 10° SSW 20:10:16 50° WNW 20:14:15 10° N
Cosmos 1110 Rocket 3.9 20:06:37 10° NNW 20:11:47 85° ENE 20:16:58 10° SSE
Cosmos 1818 4.4 20:07:11 10° SW 20:12:24 52° WNW 20:17:41 10° N
Cosmos 1331 Rocket 3.9 20:09:33 10° N 20:14:46 80° ENE 20:19:43 12° SSE
H-2A R/B 3.1 20:10:27 10° S 20:15:21 46° W 20:20:09 10° NNW
Meteor 2-13 Rocket 4.3 20:10:00 10° N 20:16:07 79° E 20:22:14 10° S
Cosmos 1184 Rocket 3.1 20:13:44 10° NNW 20:16:54 65° W 20:19:40 13° S
Cosmos 1726 Rocket 4.0 20:12:36 10° SSW 20:16:59 65° W 20:21:19 10° N
FALCON 9 DEB 3.4 20:18:04 10° SW 20:21:04 56° NW 20:23:12 17° NNE
Cosmos 1634 Rocket 4.1 20:16:10 10° SSE 20:22:17 54° E 20:28:22 10° NNE
ARIANE 5 R/B 4.4 20:24:50 10° S 20:25:51 13° S 20:25:51 13° S
Cosmos 1455 2.0 20:25:12 10° S 20:28:58 89° W 20:32:42 10° N
Okean-O 3.8 20:27:42 10° S 20:31:52 42° W 20:36:04 10° NNW
Cosmos 2360 Rocket 2.2 20:27:49 10° N 20:33:20 57° ENE 20:34:53 43° SE
CZ-3C R/B 1.9 20:35:19 10° WNW 20:36:52 33° NNW 20:36:52 33° NNW
SL-08 RB Rocket 4.4 20:34:57 10° S 20:39:28 55° W 20:44:02 10° NNW
Cosmos 2058 Rocket 4.0 20:41:39 10° SSW 20:45:51 48° W 20:50:03 10° N
Delta 7925 Rocket 4.4 20:38:56 10° WSW 20:48:04 71° SSE 20:50:34 46° E
Cosmos 2219 Rocket 3.8 20:45:05 10° NNE 20:47:33 20° NE 20:47:33 20° NE
Palapa 6 Rocket 3.9 20:46:12 10° WNW 20:49:43 33° N 20:49:43 33° N
USA 186 4.1 20:52:28 19° NNW 20:52:28 19° NNW 20:53:32 10° NNW
SL-16 R/B 3.9 20:46:55 10° NW 20:51:48 30° WSW 20:56:40 10° SSW
Hubble Space Telescope 2.7 20:50:10 10° WNW 20:53:31 24° NNW 20:54:25 22° N
Cosmos 1953 Rocket 4.3 21:01:29 10° NNW 21:04:59 49° NW 21:04:59 49° NW
Ariane Rocket 4.4 21:10:22 27° N 21:10:22 27° N 21:12:43 10° N
Cosmos 2195 Rocket 4.3 21:03:13 10° N 21:09:33 84° E 21:09:41 83° ESE
SEDSat Delta rocket 4.3 21:06:37 10° NW 21:13:04 53° NNE 21:13:04 53° NNE
Cosmos 2098 Rocket 4.4 21:08:23 10° N 21:15:48 75° W 21:18:06 46° SSW
Cosmos 2297 Rocket 2.7 21:18:13 10° SSW 21:24:08 55° NW 21:29:15 10° N
Atlas Centaur 2 2.9 21:15:20 10° WNW 21:23:46 89° SSW 21:24:18 81° SE
Cosmos 1092 Rocket 4.3 21:18:59 10° NNW 21:25:04 62° W 21:25:27 61° WSW
Cosmos 2333 Rocket 3.6 21:38:38 10° NNW 21:41:38 32° NNW 21:41:38 32° NNW
ATLAS 3B R/B 4.2 21:51:48 10° N 21:55:04 28° N 21:55:04 28° N
CZ-3C R/B 4.3 14:14:29 10° SW 23:02:57 73° NNW 23:02:57 73° NNW
